Kuchera_Ratio
0.0 0.0 0.0 0.0 0.0 0.0 0.0 0.0 0.0 0.0 0.0 0.0 0.0 0.0 0.0 0.0 0.0 0.0 0.0 0.0 0.2 7.9 7.2 7.9 8.0 12.4 13.3 14.3 16.4 14.0 15.3 15.6 17.8 20.9 21.1 20.8 22.4 21.7 22.8 23.5 24.7 25.1 26.4 26.3 26.7 27.1 30.4 23.7 24.0 27.6 27.6 25.0 23.5 22.9
0.0 0.0 0.0 0.0 0.0 0.0 0.0 0.0 0.0 0.0 0.0 0.0 0.0 0.0 0.0 0.0 0.0 0.0 0.0 0.0 0.0 4.2 6.3 5.0 4.5 5.4 5.9 7.0 11.4 13.4 14.1 15.2 14.3 18.8 20.7 21.7 22.3 23.1 23.3 25.7 25.5 26.9 27.1 28.2 28.2 28.5 26.1 25.2 25.0 24.6 25.4 25.1 23.2 23.1
0.0 0.0 0.0 0.0 0.0 0.0 0.0 0.0 0.0 0.0 0.0 0.0 0.0 0.0 0.0 0.0 0.0 0.0 0.0 0.4 1.7 8.0 10.9 11.6 12.2 7.6 4.8 8.1 5.5 13.8 13.0 12.2 13.4 13.6 16.9 18.8 23.1 19.5 23.6 25.3 26.0 25.1 23.7 25.9 26.0 25.9 24.3 23.5 22.9 21.7 23.0 23.3 22.1 21.2
0.0 0.0 0.0 0.0 0.0 0.0 0.0 0.0 0.0 0.0 0.0 0.0 0.0 0.0 0.0 0.0 0.0 0.0 1.8 3.8 4.3 10.7 15.7 14.5 6.8 10.9 8.6 9.0 9.8 7.8 11.1 10.5 12.8 14.2 17.0 19.3 20.1 19.9 25.7 25.7 27.0 26.4 24.7 26.6 25.2 25.2 23.6 22.4 22.4 22.5 22.5 21.9 22.1 21.1
0.0 0.0 0.0 0.0 0.0 0.0 0.0 0.0 0.0 0.0 0.0 0.0 0.0 0.0 0.0 0.0 0.0 0.6 2.1 1.5 0.4 9.1 16.1 15.1 12.1 9.9 11.0 12.3 12.1 11.3 12.7 14.1 16.3 17.9 18.8 22.3 21.2 22.9 24.1 26.0 29.6 26.6 28.8 29.2 28.9 26.1 26.1 24.6 22.3 21.6 23.3 23.2 22.3 22.5
0.0 0.0 0.0 0.0 0.0 0.0 0.0 0.0 0.0 0.0 0.0 0.0 0.0 0.0 0.0 0.0 0.0 3.3 9.6 2.8 0.6 2.8 15.1 18.8 13.4 14.6 13.9 13.4 13.7 14.7 13.9 15.6 17.2 17.5 22.7 22.3 21.2 22.5 27.9 30.8 27.7 25.9 25.3 25.4 28.3 25.3 24.8 22.7 22.2 22.1 23.1 22.3 22.2 22.9
0.0 0.0 0.0 0.0 0.0 0.0 0.0 0.0 0.0 0.0 0.0 0.0 0.0 0.0 0.0 0.0 2.5 6.9 11.0 5.9 1.0 2.8 13.8 19.2 19.2 15.7 16.2 15.3 16.7 17.7 17.7 18.2 17.7 22.1 24.9 25.1 25.9 25.4 29.4 32.7 28.4 27.0 26.5 25.8 25.4 26.6 26.3 24.4 26.0 23.0 22.7 22.5 21.6 22.3
0.0 0.0 0.0 0.0 0.0 0.0 0.0 0.0 0.0 0.0 0.0 0.0 0.0 0.0 0.0 0.0 0.0 7.6 8.3 5.1 4.5 11.9 15.8 19.4 20.3 19.6 18.1 20.0 20.4 21.0 21.1 20.9 22.4 25.0 25.2 26.8 27.2 29.3 33.3 30.5 27.8 27.2 27.3 26.9 27.6 26.7 26.6 25.5 24.9 24.7 23.5 23.3 23.8 23.8
0.0 0.0 0.0 0.0 0.0 0.0 0.0 0.0 0.0 0.0 0.0 0.0 0.0 0.0 2.8 6.0 9.6 8.1 0.7 6.3 11.7 13.8 19.7 21.8 22.6 22.7 20.6 22.8 23.2 22.6 23.1 26.0 25.2 29.1 27.3 27.7 33.2 33.2 34.1 31.8 29.6 28.9 30.5 29.8 28.1 27.5 27.6 28.3 27.9 26.3 25.5 25.1 25.3 25.1
0.0 0.0 0.0 0.0 0.0 0.0 0.0 0.0 0.0 0.0 0.0 0.0 3.0 7.5 13.3 10.1 0.9 1.8 12.8 15.3 17.0 19.7 21.3 22.8 23.8 24.7 24.7 25.5 26.4 25.9 26.1 27.1 30.2 30.6 28.0 33.1 33.8 31.4 31.5 30.0 29.4 29.7 29.8 29.5 31.5 30.7 29.6 29.5 29.0 28.1 27.4 26.2 25.2 24.8
0.0 0.0 0.0 0.0 0.0 0.0 0.0 0.0 0.0 0.0 2.9 8.3 12.4 13.6 11.5 4.2 11.0 16.8 19.1 19.9 21.9 23.0 23.5 23.9 24.6 25.3 25.4 27.5 28.3 27.8 28.0 28.1 30.9 30.6 32.1 34.4 35.3 32.2 30.3 29.4 29.2 29.4 29.8 29.9 29.5 29.1 28.7 28.7 28.8 28.4 27.7 26.3 25.1 24.5
0.0 0.0 0.0 0.0 0.0 0.0 0.0 0.0 0.0 4.7 8.6 8.9 11.5 12.1 13.8 17.1 17.5 19.4 22.0 22.4 22.5 23.2 23.6 24.5 25.3 26.3 27.6 25.6 28.3 28.5 28.5 28.3 32.5 28.3 33.4 35.4 35.2 32.3 32.1 29.9 29.7 29.7 30.1 30.3 29.6 29.9 29.5 28.4 28.0 27.8 27.3 26.6 25.3 24.6
0.0 0.0 0.0 0.0 0.0 0.0 0.0 0.0 0.0 1.4 6.5 11.1 15.1 17.2 17.5 20.0 21.4 21.5 22.4 23.0 23.2 23.8 24.5 25.4 26.7 27.6 27.8 27.9 28.5 29.1 31.2 32.1 28.5 33.4 35.3 35.6 32.0 32.4 30.8 30.3 30.5 30.5 30.6 30.7 30.7 29.9 30.0 30.1 28.3 27.8 27.8 26.2 25.4 24.9
0.0 0.0 0.0 0.0 0.0 0.0 0.0 0.0 0.6 5.5 12.2 14.9 16.7 18.8 19.2 20.6 21.8 22.2 22.9 23.5 24.5 24.8 25.2 26.0 27.1 28.6 29.4 29.5 29.8 31.6 32.0 32.1 34.0 35.7 35.8 35.3 32.8 32.8 30.8 30.8 31.3 31.4 31.3 31.6 31.5 31.0 31.2 31.0 30.5 28.2 27.3 26.4 26.2 26.3
0.0 0.0 0.0 0.0 0.0 0.0 0.0 2.5 7.7 12.5 14.7 16.2 17.7 19.2 20.4 21.1 21.9 23.5 24.1 24.7 24.6 25.4 26.0 26.8 28.2 29.1 30.1 30.0 31.5 32.4 33.1 33.6 35.1 35.4 34.8 32.4 33.0 33.0 31.5 31.3 31.6 31.7 31.7 31.9 32.0 32.1 31.9 31.5 30.5 29.1 27.7 26.7 26.1 25.9
0.0 0.0 0.0 0.0 0.0 1.3 4.7 10.4 13.6 14.8 16.4 17.3 18.7 19.5 20.4 22.5 23.5 24.5 25.0 24.9 25.5 26.3 27.0 28.1 29.6 30.4 31.8 32.0 32.3 32.5 33.8 34.3 35.1 35.1 32.5 33.4 33.2 31.5 31.3 31.4 31.7 31.8 32.1 32.1 32.2 32.1 32.1 31.5 30.5 29.5 27.6 26.6 26.0 25.9
0.0 3.7 0.0 0.2 2.7 5.0 9.0 14.0 15.7 16.9 17.8 19.8 19.9 20.8 22.6 23.7 24.7 25.1 25.5 25.9 26.5 27.1 27.8 29.0 30.1 30.8 32.0 32.1 32.6 33.1 33.4 34.3 32.8 33.2 33.0 32.0 31.9 31.2 31.2 31.6 31.8 32.1 32.0 32.1 31.9 32.0 32.0 30.9 30.2 28.5 28.7 27.1 25.8 25.8
4.5 0.8 0.7 3.1 9.3 13.2 15.4 16.3 16.8 18.3 20.2 20.3 21.7 22.7 24.0 24.1 25.3 25.9 25.8 25.9 26.3 27.2 28.4 29.7 30.7 31.1 31.0 31.6 32.3 32.8 32.8 32.7 33.4 33.0 31.7 31.2 31.2 31.2 31.3 31.8 32.2 32.0 32.0 31.8 32.1 32.3 31.8 31.2 30.9 30.3 28.1 27.2 25.5 25.9
3.8 3.8 2.5 3.8 11.6 14.8 16.9 18.9 18.9 20.3 20.8 21.6 23.1 23.9 24.2 25.1 24.9 25.1 25.7 26.6 27.5 27.3 28.9 30.2 30.9 31.2 31.4 31.8 32.4 31.9 32.9 33.8 34.1 32.1 31.6 30.2 30.2 31.2 31.5 32.0 32.4 31.9 31.8 31.9 32.2 32.6 31.6 30.7 30.7 30.0 27.8 27.0 27.5 27.1
0.0 1.9 4.7 8.1 12.4 16.3 18.7 20.2 19.2 22.2 22.7 23.2 23.9 25.0 24.9 25.5 25.8 26.5 26.8 26.7 28.0 28.5 29.7 29.9 30.1 30.8 30.6 30.9 31.4 31.3 31.0 31.6 32.1 34.1 33.4 32.2 30.8 31.4 31.8 31.5 31.7 32.0 32.3 32.1 32.3 27.5 29.2 29.9 27.9 27.6 28.0 26.8 28.8 28.9
9.9 11.4 12.2 13.9 16.6 18.0 20.0 21.6 22.4 23.1 23.7 24.6 24.9 25.0 26.7 25.9 26.8 27.1 27.4 27.9 28.4 28.6 29.7 28.8 28.9 28.9 28.7 29.0 29.9 30.6 31.0 31.7 32.3 32.7 33.1 33.0 30.2 30.0 30.8 31.2 31.3 29.6 31.5 31.6 32.2 31.1 28.9 30.4 28.7 27.7 26.8 28.2 28.1 28.0
12.7 11.5 16.4 15.7 19.1 21.2 22.3 22.8 23.0 23.8 25.0 25.5 26.3 25.8 26.7 26.8 27.0 27.3 27.4 28.1 28.6 27.2 27.9 28.2 28.7 27.1 27.9 28.8 29.8 30.3 30.8 31.5 31.9 32.1 29.8 30.0 32.9 32.7 32.0 31.1 30.4 32.8 32.5 31.8 31.0 30.9 30.2 28.8 28.3 26.8 27.1 27.9 27.5 27.8
12.2 14.2 17.0 18.3 20.4 22.8 24.1 22.3 24.5 24.7 25.9 27.1 27.4 26.8 26.7 26.5 26.7 27.2 27.1 27.5 27.7 27.4 27.2 27.2 27.2 27.7 28.6 29.5 30.0 30.3 30.9 31.6 32.4 32.5 32.7 33.2 32.3 31.3 31.0 31.6 32.1 32.6 32.5 31.4 29.8 30.0 29.9 27.0 28.3 27.7 28.1 29.1 29.1 29.4
14.7 18.0 20.1 20.5 22.1 23.1 24.2 25.1 25.0 25.8 26.8 27.4 27.1 26.9 26.4 26.2 26.4 26.5 26.7 27.2 27.0 26.8 27.7 27.6 28.0 28.8 29.8 30.8 31.0 30.6 30.5 31.3 31.9 32.5 32.9 33.7 34.2 33.8 33.0 33.1 33.1 32.9 31.4 30.8 30.4 29.9 29.9 29.9 27.9 29.9 30.0 30.9 31.2 31.5
17.9 21.4 22.0 22.7 23.3 23.2 24.4 24.7 25.1 25.6 26.6 26.5 26.7 26.5 26.0 25.9 25.7 25.8 26.3 26.0 26.4 26.7 27.8 27.9 28.8 29.1 30.1 30.5 31.1 30.4 30.5 31.4 32.2 33.5 32.8 33.5 33.8 33.9 33.7 33.0 32.5 32.1 30.4 31.5 31.7 30.7 30.9 30.7 30.8 31.0 31.0 31.8 32.5 31.5
21.0 22.6 23.5 23.4 23.4 24.3 25.1 25.5 25.3 25.1 25.5 25.5 25.4 25.4 25.5 25.2 25.2 25.1 25.0 25.1 25.8 26.6 26.5 27.2 28.1 28.8 29.7 29.9 30.5 31.2 31.4 31.0 32.0 34.0 33.1 32.7 33.3 34.1 34.0 34.3 34.3 33.1 29.9 29.0 30.3 30.8 30.5 29.8 30.0 30.9 31.2 31.3 28.4 29.8
21.7 23.3 23.0 22.3 23.4 23.9 24.5 24.9 24.4 23.9 23.5 23.6 24.4 24.3 24.3 24.5 24.4 24.1 24.2 24.8 25.4 25.0 25.4 25.8 27.2 28.5 29.0 29.3 29.9 30.3 30.6 31.2 31.9 32.8 31.7 32.2 32.6 32.8 33.1 33.8 34.0 31.3 29.1 29.5 29.3 29.7 30.3 30.6 30.8 30.6 30.7 30.6 31.7 32.4
22.8 22.7 23.4 24.0 24.0 24.2 23.6 23.6 22.8 22.4 22.5 22.7 23.3 23.6 23.9 23.6 23.8 23.5 23.8 24.5 24.9 25.5 26.2 26.8 27.5 28.0 28.5 28.9 29.6 30.2 30.9 31.5 32.2 32.3 32.2 31.9 31.2 31.1 31.4 30.3 29.2 25.7 26.6 29.1 28.0 29.0 29.9 30.6 30.7 30.8 30.8 31.2 31.9 32.6
23.7 23.5 23.8 24.1 23.7 23.1 22.2 21.9 21.9 21.9 22.1 22.5 22.8 23.4 23.5 23.1 22.9 23.0 23.6 24.3 24.6 25.0 25.6 26.3 26.9 27.6 28.0 28.5 29.1 29.7 30.4 31.0 31.7 32.5 33.1 32.5 32.1 30.7 30.6 31.4 32.3 31.9 32.4 32.5 28.2 26.9 28.6 27.3 30.6 32.0 33.0 33.6 33.5 33.3
24.6 24.0 24.3 23.2 22.1 21.5 21.3 20.8 21.0 21.7 21.9 21.9 22.1 22.6 22.8 22.6 22.7 23.3 23.6 23.7 24.0 24.5 25.2 25.7 26.3 26.9 27.4 27.8 28.3 28.9 29.6 30.3 31.0 31.7 32.5 32.3 31.6 31.0 31.1 31.1 31.5 31.5 32.3 32.4 32.5 32.9 30.4 33.4 33.5 33.4 33.7 33.6 33.3 33.1
24.3 24.2 22.9 21.7 22.1 21.8 21.6 21.9 22.1 22.3 22.4 22.5 22.2 22.0 21.9 22.5 22.9 22.9 22.9 23.1 23.6 24.2 24.7 25.1 25.6 26.0 26.5 27.0 27.4 27.9 28.6 29.2 30.0 30.7 31.3 31.8 30.8 30.0 30.0 30.8 30.6 31.0 31.8 32.3 32.9 33.5 33.9 34.3 34.5 34.3 34.1 33.9 33.9 33.7
24.1 22.6 21.7 22.5 23.7 23.0 22.8 22.7 22.8 22.8 23.1 23.0 22.6 22.2 22.5 22.5 22.4 22.2 21.3 21.8 22.5 23.2 23.9 24.5 25.1 25.5 26.0 26.3 26.7 27.3 27.9 28.5 29.1 29.5 30.1 30.7 30.2 29.1 29.6 29.9 29.8 30.8 31.6 32.4 32.9 33.2 33.7 34.2 34.4 34.5 34.3 34.3 34.2 34.0
22.5 22.2 21.3 22.5 23.8 23.9 23.2 22.9 22.5 22.8 22.7 22.4 22.1 22.3 22.3 22.1 21.4 20.9 20.6 20.6 21.7 22.0 23.0 23.9 24.8 25.2 25.6 26.1 26.4 26.8 27.2 27.8 28.3 27.3 24.9 23.7 21.9 23.5 28.0 29.0 29.9 30.7 31.6 32.0 32.6 33.0 33.3 33.4 33.6 33.7 33.9 33.9 34.0 34.0